STARLINK-2170, 47753

Orbit data source: Space-Track

STARLINK-2170, 47753 is a payload satellite owned by SpaceX/Seattle (US) in LEO that was launched on Thu, 04 Mar 2021 UTC via an FALCON 9 launch vehicle from the Air Force Eastern Test Range (AFETR). Payload-class satellites include a variety of spacecraft equipped with specific instruments for various scientific and technological missions. These include communications satellites like Starlink; space stations such as the ISS; scientific satellites like the Hubble; Earth observation satellites from companies like Planet Labs, Umbra, and HawkEye 360; GPS; miniature CubeSats for education and research; and military/defense satellites.

Loading next visibility...
Identifier
47753, 2021-017AH
Orbit
LEO
Country
Flag of USUS
Related business
Manufacturer
SpaceX/Seattle
Mission
Operational Commercial Communications
Bus & Motor
STARLINK, Unknown motor
Mass
260 kg wet, ~248 kg dry
Launch date (UTC)
2021-03-04 (5 years ago)
Launch vehicle
FALCON 9
Launch site
Air Force Eastern Test Range (AFETR)
Object type
Payload
Rocket body
Debris
Shape & HBR
Box + 1 Pan, 10.1 m
Radar Cross Section
13.562 m², Large (>1 m²)

Expand to show TLE details & history
Last TLE update: 3 days ago

TLE from 3 days ago
0 STARLINK-2170
1 47753U 21017AH  26170.92098353  .00001293  00000-0  53403-4 0  9996
2 47753  53.1587  88.3092 0001124  90.3838 269.7292 15.31703410293552
Epoch: 2026-06-19T22:06Z
TLE epoch observation values (Epoch: 2026-06-19T22:06:12.976Z)
Latitude
-0.00001°
Longitude
-151.38791°
Altitude
471.634 km
Speed
7.631 km/s
True Right ascension
05h 53m 14s
True Declination
0° 00' 00"
Sunlit
Object was in daylight at epoch
Visualization orbit readout
Latitude
Unknown
Longitude
Unknown
Altitude
Unknown
Speed
Unknown
Apparent Right ascension
Unknown
Apparent Declination
Unknown
Sunlit
N/A
Visualization observer readout
Local Sidereal Time
21:39:21
Azimuth
Unknown
Elevation
Unknown
Doppler factor
Unknown
Orbital elements
Apogee altitude
471.756 km
Perigee altitude
470.217 km
Semi-major axis
6,849.124 km
Eccentricity
0.00011
Inclination
53.1587°
RAAN
88.3092°
Arg. of periapsis
90.3838°
True anomaly
269.71632°
Mean anomaly
269.7292°
Eccentric anomaly
269.72276°
Mean motion
3.82905 °/min
Orbital period
94.02 mins
BSTAR
0.000053403
Loading maneuver chart data...
Computing Atmospheric mass density...

Documentation

Showing up to 5 results
|